Location: Sabalos
(43.2860°N, 0.1414°E)
Time: 04:37:58
(UTC+00:00)

Cosmos 2333 Rocket - Visible Passes

Search period start: 27 October 2020 00:00
Search period end: 06 November 2020 00:00
Orbit: 839 x 862 km, 70.8° (Epoch: 26 October)

Date Brightness Start Highest point End Pass type
(mag) Time Alt. Az. Time Alt. Az. Time Alt. Az.
28 Oct 4.5 05:57:19 10° N 06:01:22 19° NE 06:05:22 10° E visible
29 Oct 4.5 05:45:01 10° N 05:49:02 19° NE 05:53:02 10° E visible
30 Oct 4.5 05:32:42 10° N 05:36:43 19° NE 05:40:43 10° E visible
31 Oct 4.5 05:20:23 10° N 05:24:24 19° NE 05:28:24 10° E visible
01 Nov 4.5 05:08:04 10° N 05:12:05 19° NE 05:16:05 10° E visible
02 Nov 4.5 04:55:45 10° N 04:59:46 19° NE 05:03:45 10° E visible
03 Nov 4.5 04:43:26 10° N 04:47:27 19° NE 04:51:26 10° E visible
04 Nov 4.5 04:31:07 10° N 04:35:08 19° NE 04:39:06 10° E visible
05 Nov 4.5 04:18:48 10° N 04:22:48 19° NE 04:26:47 10° E visible
05 Nov 2.2 06:02:05 10° NNW 06:07:44 77° WSW 06:13:21 10° SSE visible
